Regional Weather Roundup
Issued by NWS

Home | Current Version | Previous Version | Graphics & Text | Print | Product List | Glossary On
Versions: 1 2 3 4 5 6 7 8 9 10 11 12 13 14 15 16 17 18 19 20 21 22 23 24 25 26 27 28 29 30 31 32 33 34 35 36 37 38 39 40 41 42 43 44 45 46 47 48 49 50
000
ASUS43 KFSD 311310
RWRSD

WEATHER ROUNDUP FOR SOUTH DAKOTA
NATIONAL WEATHER SERVICE SIOUX FALLS SD
800 AM CDT TUE MAY 31 2016

NOTE: "FAIR" INDICATES FEW OR NO CLOUDS BELOW 12,000 FEET WITH NO
SIGNIFICANT WEATHER AND/OR OBSTRUCTIONS TO VISIBILITY.


SDZ001>005-009-010-012>017-311400-
NORTHWEST AND NORTH CENTRAL SOUTH DAKOTA

CITY           SKY/WX    TMP DP  RH WIND       PRES   REMARKS
BUFFALO          N/A     46  41  82 W24G37    29.85R
FAITH            N/A     51  38  60 W20G29    29.92S
MOBRIDGE       SUNNY     54  43  66 W10       29.85S
$$

SDZ012>016-024>037-041>051-057-063-072>074-311400-
SOUTHWEST AND SOUTH CENTRAL SOUTH DAKOTA

CITY           SKY/WX    TMP DP  RH WIND       PRES   REMARKS
RAPID CTY ARPT SUNNY     50  37  61 S7        29.98F
PIERRE         SUNNY     53  41  63 W15       29.93F
CUSTER         SUNNY     44  34  67 W23G43    30.04S
ELLSWORTH AFB  SUNNY     55  37  51 W9        29.97F
PHILIP         SUNNY     51  42  71 W7        29.97F
PINE RIDGE     CLOUDY    50  43  77 W10       30.06S
WINNER         FAIR      56  43  61 W7        29.99R
$$

SDZ004>011-016>023-039-040-311400-
NORTHEAST SOUTH DAKOTA

CITY           SKY/WX    TMP DP  RH WIND       PRES   REMARKS
ABERDEEN       SUNNY     56  49  77 W16       29.84R
WATERTOWN      CLOUDY    58  53  84 W12       29.86R
BROOKINGS      CLOUDY    57  53  86 NW15G23   29.88R
SISSETON         N/A     60  55  83 W7        29.78S
$$

SDZ017-020-022-023-036>040-048>070-311400-
SOUTHEAST SOUTH DAKOTA

CITY           SKY/WX    TMP DP  RH WIND       PRES   REMARKS
SIOUX FALLS    CLOUDY    59  55  87 NW10      29.92R
HURON          SUNNY     57  48  72 W18       29.90R
CHAMBERLAIN    SUNNY     57  46  65 W15G22    29.97S
MITCHELL       SUNNY     58  51  78 NW13      29.94R
YANKTON        CLOUDY    57  52  82 NW18      29.93S
$$

ABBREVIATIONS USED IN REMARKS
   TC - TEMPERATURE IN CELSIUS
  WCI - WIND CHILL INDEX
   HX - HEAT INDEX
  VSB - VISIBILITY





USA.gov is the U.S. government's official web portal to all federal, state and local government web resources and services.